Other Surface Observations
Issued by NWS

Home | Current Version | Previous Version | Text Only | Print | Product List | Glossary On
Versions: 1 2 3 4 5 6 7 8 9 10 11 12 13 14 15 16 17 18 19 20 21 22 23 24 25 26 27 28 29 30 31 32 33 34 35 36 37 38 39 40 41 42 43 44 45 46 47 48 49 50
000
SXUS52 KTAE 210218
OSOTAE
OSOTAE
North Florida/South Alabama/Southwest Georgia Weather Roundup
National Weather Service Tallahassee Florida
1000 PM EDT MON OCT 20 2014

Note: "fair" indicates few or no clouds below 12,000 feet with no
significant weather and/or obstructions to visibility.

!FLZ017-115-028-034-025-210300
...North Florida...

CITY           SKY/WX    TMP DP  RH WIND       PRES   REMARKS
TALLAHASSEE    PTCLDY    69  62  78 CALM      29.99R
APALACHICOLA   PTCLDY    72  66  81 N5        29.98S
PERRY          PTCLDY    64  63  94 CALM      30.00R FOG
CROSS CITY       N/A     65  62  90 CALM      29.99R
JACKSONVILLE   MOCLDY    69  67  93 CALM      29.98R
$$

!FLZ112-006-005-002-011-210300
...Florida Panhandle...

CITY           SKY/WX    TMP DP  RH WIND       PRES   REMARKS
MARIANNA       CLEAR     65  62  90 CALM      29.99R
BONIFAY        NOT AVBL
PANAMA CITY NW FAIR      65  61  87 NW5       29.98S
TYNDALL AFB    CLEAR     63  62  98 S1        29.99S
TYND DRONE APT FAIR      62  63 100 MISG      29.97S
DE FUNIAK SPR  FAIR      62  56  80 CALM      30.00S
EGLIN AFB      PTCLDY    65  60  85 NW2       29.99S
DESTIN         CLEAR     70  62  76 N5        29.99S
HURLBURT       CLEAR     65  57  76 N6        29.99R
CRESTVIEW      CLEAR     56  55  97 CALM      30.01S
PENSACOLA      CLEAR     65  59  81 NW8       30.00R
$$

!ALZ063-066-210300
...South Alabama...

CITY           SKY/WX    TMP DP  RH WIND       PRES   REMARKS
DOTHAN         CLEAR     58  54  86 N5        30.04R
OZARK CAIRNS   CLEAR     65  54  66 N3        30.00S
FT RUCKER HELI CLEAR     57  55  93 CALM      29.99S
RUCKER HELI 3  FAIR      58  55  89 NW2       30.03S
RUCKER HELI 2  FAIR      61  55  81 NW3       30.00S
FLORALA APT    CLEAR     58  54  86 CALM      30.02S
ANDALUSIA      PTCLDY    62  53  72 CALM      30.00S
TROY           CLEAR     56  53  90 CALM      30.02S
EUFALA         FAIR      56  54  93 CALM      30.00R
MOBILE         PTCLDY    57  53  86 N3        30.02R
$$

!GAZ120>161-210300
...Southwest and South Central Georgia...

CITY           SKY/WX    TMP DP  RH WIND       PRES   REMARKS
THOMASVILLE    FAIR      64  64 100 CALM      30.01R
BAINBRIDGE     CLEAR     64  61  88 CALM      30.00R
MOODY AFB      PTCLDY    67  62  83 CALM      29.99S
VALDOSTA       PTCLDY    65  60  84 CALM      29.99R
MOULTRIE       PTCLDY    64  63  94 CALM      30.01R
BLAKELY        CLEAR     61  59  94 CALM        N/A
ALBANY         CLEAR     62  59  90 NW5       30.02R
TIFTON         FAIR      63  59  86 CALM      30.01R
FITZGERALD     FAIR      63  60  91 CALM      30.03R
CORDELE        FAIR      62  59  88 CALM      30.02R
AMERICUS       FAIR      57  57 100 CALM      30.03S
HOMERVILLE     MOCLDY    70  66  88 CALM      29.99S
$$

!GMZ750-755-770-775-210300
...Coastal and Buoy Obs...

STATION/POSITION TIME  TEMP    WIND        PRES    VSBY  WAVE
                       AIR SEA DIR/SP/G                  HT/PER
                 (UTC) (F)     (DEG/KT/KT) (MB)    (MI)  (FT/S)
KEATON BEACH     0200   70      CALM  /  3 1015.7R
CEDAR KEY        0200   73     340/  2/  3 1015.8R
C TOWER          0200   76      20/  3/  3 1015.1R
APALACHICOLA BUO 0200   78 81  290/  2/  4 1015.3R         2/ 5
PANAMA CITY BUOY 0056   77 81  360/  8/ 10 1015.4          2/ 5
MOBILE BUOY      0131   74 79   20/ 10/ 12 1016.1R         1/ 4
ORANGE BCH AL BU 0200   75 78  340/  8/ 10 1015.5R         1
$$



USA.gov is the U.S. government's official web portal to all federal, state and local government web resources and services.